Virginia Beach, VA

5:09 PM EST on January 17, 2017 (GMT -0500)
Oceana Naval Air Station

Weather History for KNTU - September, 2012

Change the Weather History Date:

Sunday, September 23, 2012

  Actual Average Record
Temperature  
Mean Temperature 65 °F -  
Max Temperature 72 °F 75 °F 90 °F (2005)
Min Temperature 57 °F 60 °F 53 °F (1998)
Growing Degree Days 15 (Base 50)    
Moisture  
Dew Point 53 °F    
Average Humidity 60    
Maximum Humidity 84    
Minimum Humidity 43    
Precipitation  
Precipitation 0.00 in - - ()
Sea Level Pressure  
Sea Level Pressure 30.06 in    
Wind  
Wind Speed 11 mph (North)    
Max Wind Speed 20 mph    
Max Gust Speed 25 mph    
Visibility 10 miles    
Events      
Averages and records for this station are not official NWS values.
T = Trace of Precipitation, MM = Missing Value Source: NWS Daily Summary

Daily Weather History Graph

Daily Weather History Graph

Search for Another Location

Airport or City:

Trip Planner

Search our weather history database for the weather conditions in past years. The results will help you decide how hot, cold, wet, or windy it might be!

Date:

Astronomy

Sep. 23, 2012 Rise Set
Actual Time 6:53 AM EDT 6:58 PM EDT
Civil Twilight 6:27 AM EDT 7:24 PM EDT
Nautical Twilight 5:57 AM EDT 7:54 PM EDT
Astronomical Twilight 5:26 AM EDT 8:25 PM EDT
Moon 2:50 PM EDT (9/23) 12:11 AM EDT (9/23)
Length of Visible Light 12h 57m
Length of Day
12h 05m
First Quarter, 60% of the Moon is Illuminated
Sep 23
First Quarter
Sep 29
Full
Oct 8
Last Quarter
Oct 15
New
Oct 21
First Quarter

Hourly Weather History & Observations

Time (EDT) Temp. Dew Point Humidity Pressure Visibility Wind Dir Wind Speed Gust Speed Precip Events Conditions
12:56 AM 71.1 °F 64.9 °F 81% 29.93 in 10.0 mi SW 10.4 mph - N/A   Scattered Clouds
1:56 AM 71.1 °F 64.9 °F 81% 29.94 in 10.0 mi WSW 12.7 mph - N/A   Mostly Cloudy
2:56 AM 70.0 °F 64.0 °F 81% 29.94 in 10.0 mi West 6.9 mph - N/A   Scattered Clouds
3:56 AM 68.0 °F 63.0 °F 84% 29.95 in 10.0 mi West 6.9 mph - N/A   Scattered Clouds
4:56 AM 71.1 °F 61.0 °F 70% 29.97 in 10.0 mi NNE 11.5 mph 18.4 mph N/A   Mostly Cloudy
5:56 AM 71.1 °F 57.0 °F 61% 29.99 in 10.0 mi North 9.2 mph - N/A   Mostly Cloudy
6:56 AM 69.1 °F 55.9 °F 63% 30.02 in 10.0 mi North 16.1 mph - N/A   Mostly Cloudy
7:56 AM 68.0 °F 54.0 °F 61% 30.05 in 10.0 mi NNE 16.1 mph 23.0 mph N/A   Scattered Clouds
8:56 AM 69.1 °F 53.1 °F 57% 30.07 in 10.0 mi NNE 16.1 mph - N/A   Scattered Clouds
9:56 AM 69.1 °F 50.0 °F 51% 30.09 in 10.0 mi North 18.4 mph 24.2 mph N/A   Partly Cloudy
10:56 AM 69.1 °F 52.0 °F 54% 30.10 in 10.0 mi North 17.3 mph 25.3 mph N/A   Scattered Clouds
11:56 AM 69.1 °F 52.0 °F 54% 30.10 in 10.0 mi North 19.6 mph 23.0 mph N/A   Scattered Clouds
12:56 PM 70.0 °F 51.1 °F 51% 30.09 in 10.0 mi North 18.4 mph 21.9 mph N/A   Scattered Clouds
1:56 PM 71.1 °F 48.9 °F 45% 30.09 in 10.0 mi North 15.0 mph 20.7 mph N/A   Partly Cloudy
2:56 PM 70.0 °F 46.9 °F 44% 30.09 in 10.0 mi North 9.2 mph - N/A   Partly Cloudy
3:56 PM 70.0 °F 48.0 °F 46% 30.07 in 10.0 mi NNW 12.7 mph - N/A   Scattered Clouds
4:56 PM 68.0 °F 46.0 °F 45% 30.07 in 10.0 mi North 9.2 mph - N/A   Mostly Cloudy
5:56 PM 68.0 °F 45.0 °F 43% 30.08 in 10.0 mi North 12.7 mph - N/A   Scattered Clouds
6:56 PM 64.9 °F 46.0 °F 50% 30.09 in 10.0 mi North 5.8 mph - N/A   Scattered Clouds
7:56 PM 62.1 °F 46.0 °F 56% 30.11 in 10.0 mi North 6.9 mph - N/A   Scattered Clouds
8:56 PM 62.1 °F 48.0 °F 60% 30.13 in 10.0 mi North 4.6 mph - N/A   Scattered Clouds
9:56 PM 60.1 °F 48.0 °F 64% 30.14 in 10.0 mi North 3.5 mph - N/A   Scattered Clouds
10:56 PM 59.0 °F 46.9 °F 64% 30.14 in 10.0 mi Calm Calm - N/A   Scattered Clouds
11:56 PM 57.0 °F 48.0 °F 72% 30.14 in 10.0 mi Calm Calm - N/A   Partly Cloudy